Time,TemperatureF,DewpointF,PressureIn,WindDirection,WindDirectionDegrees,WindSpeedMPH,WindSpeedGustMPH,Humidity,HourlyPrecipIn,Conditions,Clouds,dailyrainin,SoftwareType,DateUTC
2013-02-13 00:00:00,59.7,44.9,25.25,WSW,254,3.6,3.6,58,0.00,,---,0.00,VWS V14.01,2013-02-13 06:00:00,
2013-02-13 00:01:00,59.5,44.8,25.25,WSW,246,4.0,4.0,58,0.00,,---,0.00,VWS V14.01,2013-02-13 06:01:00,
2013-02-13 00:02:00,59.7,44.9,25.25,WSW,254,3.6,3.6,58,0.00,,---,0.00,VWS V14.01,2013-02-13 06:02:00,
2013-02-13 00:03:00,59.5,45.2,25.25,West,280,0.0,0.0,59,0.00,,---,0.00,VWS V14.01,2013-02-13 06:03:00,
2013-02-13 00:04:00,59.5,45.2,25.25,West,280,0.0,4.0,59,0.00,,---,0.00,VWS V14.01,2013-02-13 06:04:00,
2013-02-13 00:05:00,59.5,45.2,25.25,West,280,0.0,0.0,59,0.00,,---,0.00,VWS V14.01,2013-02-13 06:05:00,
2013-02-13 00:06:00,59.5,45.2,25.25,NW,305,0.0,0.0,59,0.00,,---,0.00,VWS V14.01,2013-02-13 06:06:00,
2013-02-13 00:07:00,59.5,45.2,25.25,WNW,284,2.7,2.7,59,0.00,,---,0.00,VWS V14.01,2013-02-13 06:07:00,
2013-02-13 00:08:00,59.4,45.0,25.25,NW,320,2.2,2.2,59,0.00,,---,0.00,VWS V14.01,2013-02-13 06:08:00,
2013-02-13 00:09:00,59.4,45.0,25.25,WSW,249,5.4,5.4,59,0.00,,---,0.00,VWS V14.01,2013-02-13 06:09:00,
2013-02-13 00:10:00,59.4,45.0,25.25,West,281,0.0,5.4,59,0.00,,---,0.00,VWS V14.01,2013-02-13 06:10:00,
2013-02-13 00:11:00,59.4,45.0,25.25,WSW,249,5.4,5.4,59,0.00,,---,0.00,VWS V14.01,2013-02-13 06:11:00,
2013-02-13 00:12:00,59.4,45.0,25.25,West,281,0.0,5.4,59,0.00,,---,0.00,VWS V14.01,2013-02-13 06:12:00,
2013-02-13 00:13:00,59.4,45.0,25.25,NNE,22,2.7,2.7,59,0.00,,---,0.00,VWS V14.01,2013-02-13 06:13:00,
2013-02-13 00:14:00,59.4,45.0,25.25,West,273,2.7,2.7,59,0.00,,---,0.00,VWS V14.01,2013-02-13 06:14:00,
2013-02-13 00:15:00,59.4,45.0,25.25,West,273,2.2,3.1,59,0.00,,---,0.00,VWS V14.01,2013-02-13 06:15:00,
2013-02-13 00:16:00,59.4,45.0,25.25,West,273,2.7,2.7,59,0.00,,---,0.00,VWS V14.01,2013-02-13 06:16:00,
2013-02-13 00:17:00,59.4,45.0,25.25,NW,320,0.0,2.7,59,0.00,,---,0.00,VWS V14.01,2013-02-13 06:17:00,
2013-02-13 00:18:00,60.1,43.9,25.25,NW,320,0.0,0.0,55,0.00,,---,0.00,VWS V14.01,2013-02-13 06:18:00,
2013-02-13 00:19:00,60.4,43.7,25.25,NW,321,2.2,2.2,54,0.00,,---,0.00,VWS V14.01,2013-02-13 06:19:00,
2013-02-13 00:20:00,60.3,43.6,25.25,NW,321,2.2,2.2,54,0.00,,---,0.00,VWS V14.01,2013-02-13 06:20:00,
2013-02-13 00:21:00,60.4,42.8,25.25,ESE,114,2.2,3.6,52,0.00,,---,0.00,VWS V14.01,2013-02-13 06:21:00,
2013-02-13 00:22:00,60.4,42.8,25.25,South,169,5.4,5.4,52,0.00,,---,0.00,VWS V14.01,2013-02-13 06:22:00,
2013-02-13 00:23:00,60.4,42.8,25.25,ESE,114,2.2,3.6,52,0.00,,---,0.00,VWS V14.01,2013-02-13 06:23:00,
2013-02-13 00:24:00,60.4,42.8,25.25,South,169,5.4,5.4,52,0.00,,---,0.00,VWS V14.01,2013-02-13 06:24:00,
2013-02-13 00:25:00,60.4,42.8,25.25,South,173,0.0,5.4,52,0.00,,---,0.00,VWS V14.01,2013-02-13 06:25:00,
2013-02-13 00:26:00,60.4,42.8,25.25,SSE,166,2.2,2.7,52,0.00,,---,0.00,VWS V14.01,2013-02-13 06:26:00,
2013-02-13 00:27:00,61.2,41.9,25.25,ESE,104,4.9,4.9,49,0.00,,---,0.00,VWS V14.01,2013-02-13 06:27:00,
2013-02-13 00:28:00,61.2,41.9,25.25,SSE,162,3.1,4.9,49,0.00,,---,0.00,VWS V14.01,2013-02-13 06:28:00,
2013-02-13 00:29:00,61.2,41.9,25.25,ESE,104,4.9,4.9,49,0.00,,---,0.00,VWS V14.01,2013-02-13 06:29:00,
2013-02-13 00:30:00,61.2,41.9,25.25,SSE,162,3.1,4.9,49,0.00,,---,0.00,VWS V14.01,2013-02-13 06:30:00,
2013-02-13 00:31:00,61.2,41.9,25.25,SSE,162,3.1,3.1,49,0.00,,---,0.00,VWS V14.01,2013-02-13 06:31:00,
2013-02-13 00:32:00,61.5,41.7,25.25,SSE,162,3.1,3.1,48,0.00,,---,0.00,VWS V14.01,2013-02-13 06:32:00,
2013-02-13 00:33:00,61.9,42.0,25.22,SW,223,0.0,2.2,48,0.00,,---,0.00,VWS V14.01,2013-02-13 06:33:00,
2013-02-13 00:34:00,62.1,41.6,25.22,NE,51,3.1,3.1,47,0.00,,---,0.00,VWS V14.01,2013-02-13 06:34:00,
2013-02-13 00:35:00,62.1,41.6,25.22,ESE,114,3.6,3.6,47,0.00,,---,0.00,VWS V14.01,2013-02-13 06:35:00,
2013-02-13 00:36:00,62.2,41.2,25.22,ESE,114,3.6,3.6,46,0.00,,---,0.00,VWS V14.01,2013-02-13 06:36:00,
2013-02-13 00:37:00,62.1,41.6,25.22,ESE,114,3.6,3.6,47,0.00,,---,0.00,VWS V14.01,2013-02-13 06:37:00,
2013-02-13 00:38:00,62.2,41.2,25.22,ESE,114,3.6,3.6,46,0.00,,---,0.00,VWS V14.01,2013-02-13 06:38:00,
2013-02-13 00:39:00,62.2,41.2,25.22,ESE,110,0.0,3.6,46,0.00,,---,0.00,VWS V14.01,2013-02-13 06:39:00,
2013-02-13 00:40:00,62.2,41.2,25.22,SE,127,3.6,3.6,46,0.00,,---,0.00,VWS V14.01,2013-02-13 06:40:00,
2013-02-13 00:41:00,62.4,41.4,25.22,SE,127,3.6,3.6,46,0.00,,---,0.00,VWS V14.01,2013-02-13 06:41:00,
2013-02-13 00:42:00,62.4,41.4,25.22,SE,127,3.6,3.6,46,0.00,,---,0.00,VWS V14.01,2013-02-13 06:42:00,
2013-02-13 00:43:00,62.4,41.4,25.22,SE,127,3.6,3.6,46,0.00,,---,0.00,VWS V14.01,2013-02-13 06:43:00,
2013-02-13 00:44:00,62.4,41.4,25.22,ESE,116,3.1,3.1,46,0.00,,---,0.00,VWS V14.01,2013-02-13 06:44:00,
2013-02-13 00:45:00,62.4,41.4,25.22,ENE,64,0.0,3.6,46,0.00,,---,0.00,VWS V14.01,2013-02-13 06:45:00,
2013-02-13 00:46:00,62.4,41.4,25.22,ESE,116,3.1,3.1,46,0.00,,---,0.00,VWS V14.01,2013-02-13 06:46:00,
2013-02-13 00:47:00,62.4,41.4,25.22,ESE,109,0.0,3.1,46,0.00,,---,0.00,VWS V14.01,2013-02-13 06:47:00,
2013-02-13 00:48:00,62.4,41.4,25.22,ESE,106,0.0,3.6,46,0.00,,---,0.00,VWS V14.01,2013-02-13 06:48:00,
2013-02-13 00:49:00,62.4,41.4,25.22,ESE,106,0.0,0.0,46,0.00,,---,0.00,VWS V14.01,2013-02-13 06:49:00,
2013-02-13 00:50:00,62.4,41.4,25.22,ESE,106,0.0,3.6,46,0.00,,---,0.00,VWS V14.01,2013-02-13 06:50:00,
2013-02-13 00:51:00,62.4,41.4,25.22,ESE,106,0.0,0.0,46,0.00,,---,0.00,VWS V14.01,2013-02-13 06:51:00,
2013-02-13 00:52:00,62.4,41.4,25.22,ESE,106,2.2,2.2,46,0.00,,---,0.00,VWS V14.01,2013-02-13 06:52:00,
2013-02-13 00:53:00,62.2,41.2,25.22,WSW,245,0.0,0.0,46,0.00,,---,0.00,VWS V14.01,2013-02-13 06:53:00,
2013-02-13 00:54:00,62.2,41.2,25.22,ENE,57,0.0,0.0,46,0.00,,---,0.00,VWS V14.01,2013-02-13 06:54:00,
2013-02-13 00:55:00,62.2,41.2,25.22,WSW,245,0.0,0.0,46,0.00,,---,0.00,VWS V14.01,2013-02-13 06:55:00,
2013-02-13 00:56:00,62.1,41.1,25.22,WSW,245,0.0,0.0,46,0.00,,---,0.00,VWS V14.01,2013-02-13 06:56:00,
2013-02-13 00:57:00,62.1,41.1,25.22,WSW,245,0.0,0.0,46,0.00,,---,0.00,VWS V14.01,2013-02-13 06:57:00,
2013-02-13 00:58:00,62.1,41.1,25.22,WSW,246,0.0,0.0,46,0.00,,---,0.00,VWS V14.01,2013-02-13 06:58:00,
2013-02-13 00:59:00,62.1,41.1,25.22,WSW,245,0.0,0.0,46,0.00,,---,0.00,VWS V14.01,2013-02-13 06:59:00,
2013-02-13 01:00:00,61.3,41.0,25.22,West,262,2.7,3.1,47,0.00,,---,0.00,VWS V14.01,2013-02-13 07:00:00,
2013-02-13 01:01:00,61.5,41.1,25.22,West,262,3.1,3.1,47,0.00,,---,0.00,VWS V14.01,2013-02-13 07:01:00,
2013-02-13 01:02:00,61.0,41.2,25.22,West,262,0.0,0.0,48,0.00,,---,0.00,VWS V14.01,2013-02-13 07:02:00,
2013-02-13 01:03:00,61.3,41.0,25.22,West,262,0.0,2.7,47,0.00,,---,0.00,VWS V14.01,2013-02-13 07:03:00,
2013-02-13 01:04:00,60.6,41.4,25.22,West,262,2.7,2.7,49,0.00,,---,0.00,VWS V14.01,2013-02-13 07:04:00,
2013-02-13 01:05:00,61.0,41.2,25.22,West,262,0.0,0.0,48,0.00,,---,0.00,VWS V14.01,2013-02-13 07:05:00,
2013-02-13 01:06:00,60.6,41.4,25.22,West,262,2.7,2.7,49,0.00,,---,0.00,VWS V14.01,2013-02-13 07:06:00,
2013-02-13 01:07:00,60.4,41.7,25.22,WSW,237,2.7,2.7,50,0.00,,---,0.00,VWS V14.01,2013-02-13 07:07:00,
2013-02-13 01:08:00,60.1,41.9,25.22,WNW,295,0.0,0.0,51,0.00,,---,0.00,VWS V14.01,2013-02-13 07:08:00,
2013-02-13 01:09:00,60.3,42.1,25.22,WNW,295,0.0,3.1,51,0.00,,---,0.00,VWS V14.01,2013-02-13 07:09:00,
2013-02-13 01:10:00,60.1,41.9,25.22,WNW,295,0.0,0.0,51,0.00,,---,0.00,VWS V14.01,2013-02-13 07:10:00,
2013-02-13 01:11:00,59.7,42.6,25.22,West,261,3.6,3.6,53,0.00,,---,0.00,VWS V14.01,2013-02-13 07:11:00,
2013-02-13 01:12:00,59.9,42.2,25.22,West,277,3.1,3.1,52,0.00,,---,0.00,VWS V14.01,2013-02-13 07:12:00,
2013-02-13 01:13:00,59.7,42.6,25.22,West,268,4.0,4.0,53,0.00,,---,0.00,VWS V14.01,2013-02-13 07:13:00,
2013-02-13 01:14:00,59.7,42.6,25.22,West,268,4.0,4.0,53,0.00,,---,0.00,VWS V14.01,2013-02-13 07:14:00,
2013-02-13 01:15:00,59.4,43.2,25.22,West,269,3.1,4.0,55,0.00,,---,0.00,VWS V14.01,2013-02-13 07:15:00,
2013-02-13 01:16:00,59.7,42.6,25.22,West,268,4.0,4.0,53,0.00,,---,0.00,VWS V14.01,2013-02-13 07:16:00,
2013-02-13 01:17:00,59.4,43.2,25.22,West,269,3.1,4.0,55,0.00,,---,0.00,VWS V14.01,2013-02-13 07:17:00,
2013-02-13 01:18:00,59.4,43.2,25.22,WNW,286,5.4,5.4,55,0.00,,---,0.00,VWS V14.01,2013-02-13 07:18:00,
2013-02-13 01:19:00,59.4,44.1,25.22,WNW,287,0.0,3.1,57,0.00,,---,0.00,VWS V14.01,2013-02-13 07:19:00,
2013-02-13 01:20:00,59.2,44.0,25.22,WNW,287,0.0,0.0,57,0.00,,---,0.00,VWS V14.01,2013-02-13 07:20:00,
2013-02-13 01:21:00,59.4,44.1,25.22,WNW,287,0.0,3.1,57,0.00,,---,0.00,VWS V14.01,2013-02-13 07:21:00,
2013-02-13 01:22:00,59.2,44.0,25.22,WSW,258,2.7,3.6,57,0.00,,---,0.00,VWS V14.01,2013-02-13 07:22:00,
2013-02-13 01:23:00,59.2,44.0,25.22,West,262,3.6,3.6,57,0.00,,---,0.00,VWS V14.01,2013-02-13 07:23:00,
2013-02-13 01:24:00,59.2,44.0,25.22,WSW,258,2.7,3.6,57,0.00,,---,0.00,VWS V14.01,2013-02-13 07:24:00,
2013-02-13 01:25:00,59.0,44.7,25.22,West,275,2.7,2.7,59,0.00,,---,0.00,VWS V14.01,2013-02-13 07:25:00,
2013-02-13 01:26:00,59.0,44.7,25.22,West,275,2.7,2.7,59,0.00,,---,0.00,VWS V14.01,2013-02-13 07:26:00,
2013-02-13 01:27:00,59.0,44.7,25.22,West,275,2.7,2.7,59,0.00,,---,0.00,VWS V14.01,2013-02-13 07:27:00,
2013-02-13 01:28:00,59.0,45.2,25.22,SW,222,2.7,2.7,60,0.00,,---,0.00,VWS V14.01,2013-02-13 07:28:00,
2013-02-13 01:29:00,58.8,45.4,25.22,WSW,238,3.6,3.6,61,0.00,,---,0.00,VWS V14.01,2013-02-13 07:29:00,
2013-02-13 01:30:00,59.0,45.2,25.22,SW,222,2.7,2.7,60,0.00,,---,0.00,VWS V14.01,2013-02-13 07:30:00,
2013-02-13 01:31:00,58.8,45.4,25.22,WSW,238,3.6,3.6,61,0.00,,---,0.00,VWS V14.01,2013-02-13 07:31:00,
2013-02-13 01:32:00,58.8,45.4,25.22,WSW,242,0.0,0.0,61,0.00,,---,0.00,VWS V14.01,2013-02-13 07:32:00,
2013-02-13 01:33:00,58.8,45.4,25.22,West,270,2.2,2.2,61,0.00,,---,0.00,VWS V14.01,2013-02-13 07:33:00,
2013-02-13 01:34:00,58.8,45.4,25.22,West,278,2.2,2.2,61,0.00,,---,0.00,VWS V14.01,2013-02-13 07:34:00,
2013-02-13 01:35:00,58.8,45.4,25.22,West,275,0.0,2.2,61,0.00,,---,0.00,VWS V14.01,2013-02-13 07:35:00,
2013-02-13 01:36:00,58.8,45.4,25.22,West,278,2.2,2.2,61,0.00,,---,0.00,VWS V14.01,2013-02-13 07:36:00,
2013-02-13 01:37:00,58.8,45.4,25.22,West,275,0.0,2.2,61,0.00,,---,0.00,VWS V14.01,2013-02-13 07:37:00,
2013-02-13 01:38:00,58.6,45.2,25.22,West,265,0.0,0.0,61,0.00,,---,0.00,VWS V14.01,2013-02-13 07:38:00,
2013-02-13 01:39:00,58.6,45.2,25.22,West,265,0.0,0.0,61,0.00,,---,0.00,VWS V14.01,2013-02-13 07:39:00,
2013-02-13 01:40:00,58.5,45.9,25.22,West,276,3.6,3.6,63,0.00,,---,0.00,VWS V14.01,2013-02-13 07:40:00,
2013-02-13 01:41:00,58.5,46.3,25.22,West,276,3.6,3.6,64,0.00,,---,0.00,VWS V14.01,2013-02-13 07:41:00,
2013-02-13 01:42:00,58.5,46.3,25.22,WNW,286,0.0,3.6,64,0.00,,---,0.00,VWS V14.01,2013-02-13 07:42:00,
2013-02-13 01:43:00,58.5,46.3,25.22,West,276,3.6,3.6,64,0.00,,---,0.00,VWS V14.01,2013-02-13 07:43:00,
2013-02-13 01:44:00,58.5,46.3,25.22,WNW,286,0.0,3.6,64,0.00,,---,0.00,VWS V14.01,2013-02-13 07:44:00,
2013-02-13 01:45:00,58.5,46.3,25.22,WSW,255,2.7,2.7,64,0.00,,---,0.00,VWS V14.01,2013-02-13 07:45:00,
2013-02-13 01:46:00,58.5,46.8,25.22,WNW,285,0.0,3.1,65,0.00,,---,0.00,VWS V14.01,2013-02-13 07:46:00,
2013-02-13 01:47:00,58.5,46.8,25.22,West,278,0.0,0.0,65,0.00,,---,0.00,VWS V14.01,2013-02-13 07:47:00,
2013-02-13 01:48:00,58.5,46.8,25.22,WNW,285,0.0,3.1,65,0.00,,---,0.00,VWS V14.01,2013-02-13 07:48:00,
2013-02-13 01:49:00,58.5,46.8,25.22,West,278,0.0,0.0,65,0.00,,---,0.00,VWS V14.01,2013-02-13 07:49:00,
2013-02-13 01:50:00,58.5,46.8,25.22,West,279,2.2,2.7,65,0.00,,---,0.00,VWS V14.01,2013-02-13 07:50:00,
2013-02-13 01:51:00,58.5,46.8,25.22,West,279,2.7,2.7,65,0.00,,---,0.00,VWS V14.01,2013-02-13 07:51:00,
2013-02-13 01:52:00,58.5,46.8,25.22,West,279,2.2,2.7,65,0.00,,---,0.00,VWS V14.01,2013-02-13 07:52:00,
2013-02-13 01:53:00,58.3,47.0,25.22,West,278,2.7,2.7,66,0.00,,---,0.00,VWS V14.01,2013-02-13 07:53:00,
2013-02-13 01:54:00,58.5,46.8,25.22,West,278,2.7,2.7,65,0.00,,---,0.00,VWS V14.01,2013-02-13 07:54:00,
2013-02-13 01:55:00,58.1,47.2,25.22,West,275,3.1,3.1,67,0.00,,---,0.00,VWS V14.01,2013-02-13 07:55:00,
2013-02-13 01:56:00,58.1,47.2,25.22,SSW,206,5.4,5.4,67,0.00,,---,0.00,VWS V14.01,2013-02-13 07:56:00,
2013-02-13 01:58:00,58.5,47.6,25.22,NNE,12,3.1,6.3,67,0.00,,---,0.00,VWS V14.01,2013-02-13 07:58:00,
2013-02-13 01:59:00,58.1,47.2,25.22,SE,136,6.3,6.3,67,0.00,,---,0.00,VWS V14.01,2013-02-13 07:59:00,
2013-02-13 02:00:00,58.5,47.6,25.22,NNE,12,3.1,6.3,67,0.00,,---,0.00,VWS V14.01,2013-02-13 08:00:00,
2013-02-13 02:01:00,58.5,47.6,25.22,East,99,3.6,5.8,67,0.00,,---,0.00,VWS V14.01,2013-02-13 08:01:00,
2013-02-13 02:02:00,58.5,47.6,25.22,East,91,0.0,3.6,67,0.00,,---,0.00,VWS V14.01,2013-02-13 08:02:00,
2013-02-13 02:03:00,58.5,47.6,25.22,East,99,3.6,5.8,67,0.00,,---,0.00,VWS V14.01,2013-02-13 08:03:00,
2013-02-13 02:04:00,59.7,46.7,25.22,East,91,0.0,0.0,62,0.00,,---,0.00,VWS V14.01,2013-02-13 08:04:00,
2013-02-13 02:05:00,59.5,46.5,25.22,East,91,0.0,0.0,62,0.00,,---,0.00,VWS V14.01,2013-02-13 08:05:00,
2013-02-13 02:06:00,59.7,46.7,25.22,East,91,0.0,0.0,62,0.00,,---,0.00,VWS V14.01,2013-02-13 08:06:00,
2013-02-13 02:07:00,60.1,46.2,25.22,SSE,164,5.8,5.8,60,0.00,,---,0.00,VWS V14.01,2013-02-13 08:07:00,
2013-02-13 02:08:00,60.1,44.3,25.22,ENE,63,6.3,6.3,56,0.00,,---,0.00,VWS V14.01,2013-02-13 08:08:00,
2013-02-13 02:09:00,60.1,44.3,25.22,ESE,112,5.8,6.3,56,0.00,,---,0.00,VWS V14.01,2013-02-13 08:09:00,
2013-02-13 02:10:00,60.1,44.3,25.22,ESE,112,5.8,5.8,56,0.00,,---,0.00,VWS V14.01,2013-02-13 08:10:00,
2013-02-13 02:11:00,60.1,44.3,25.22,ESE,112,5.8,6.3,56,0.00,,---,0.00,VWS V14.01,2013-02-13 08:11:00,
2013-02-13 02:12:00,60.1,44.3,25.22,ESE,112,5.8,5.8,56,0.00,,---,0.00,VWS V14.01,2013-02-13 08:12:00,
2013-02-13 02:13:00,61.0,43.8,25.22,NE,50,3.1,5.8,53,0.00,,---,0.00,VWS V14.01,2013-02-13 08:13:00,
2013-02-13 02:14:00,61.0,43.2,25.22,NNE,25,2.7,3.6,52,0.00,,---,0.00,VWS V14.01,2013-02-13 08:14:00,
2013-02-13 02:15:00,61.3,43.1,25.22,NNE,25,2.7,2.7,51,0.00,,---,0.00,VWS V14.01,2013-02-13 08:15:00,
2013-02-13 02:16:00,61.0,43.2,25.22,NNE,25,2.7,3.6,52,0.00,,---,0.00,VWS V14.01,2013-02-13 08:16:00,
2013-02-13 02:17:00,61.3,43.1,25.22,NW,308,2.2,2.2,51,0.00,,---,0.00,VWS V14.01,2013-02-13 08:17:00,
2013-02-13 02:18:00,61.3,43.1,25.22,NW,308,2.2,5.4,51,0.00,,---,0.00,VWS V14.01,2013-02-13 08:18:00,
2013-02-13 02:19:00,61.2,42.9,25.22,NNE,18,0.0,3.6,51,0.00,,---,0.00,VWS V14.01,2013-02-13 08:19:00,
2013-02-13 02:20:00,61.2,42.9,25.22,NNW,336,0.0,0.0,51,0.00,,---,0.00,VWS V14.01,2013-02-13 08:20:00,
2013-02-13 02:21:00,61.2,42.9,25.22,NNE,18,0.0,3.6,51,0.00,,---,0.00,VWS V14.01,2013-02-13 08:21:00,
2013-02-13 02:22:00,61.0,42.7,25.22,NE,51,2.2,2.7,51,0.00,,---,0.00,VWS V14.01,2013-02-13 08:22:00,
2013-02-13 02:23:00,61.0,42.7,25.22,NNW,336,0.0,0.0,51,0.00,,---,0.00,VWS V14.01,2013-02-13 08:23:00,
2013-02-13 02:24:00,61.0,42.7,25.22,NE,51,2.2,2.7,51,0.00,,---,0.00,VWS V14.01,2013-02-13 08:24:00,
2013-02-13 02:25:00,60.8,43.1,25.22,NNW,328,0.0,0.0,52,0.00,,---,0.00,VWS V14.01,2013-02-13 08:25:00,
2013-02-13 02:26:00,60.8,43.1,25.22,NE,53,0.0,2.2,52,0.00,,---,0.00,VWS V14.01,2013-02-13 08:26:00,
2013-02-13 02:27:00,60.6,43.4,25.22,WSW,250,3.1,3.1,53,0.00,,---,0.00,VWS V14.01,2013-02-13 08:27:00,
2013-02-13 02:28:00,60.6,43.4,25.22,WSW,250,3.1,3.1,53,0.00,,---,0.00,VWS V14.01,2013-02-13 08:28:00,
2013-02-13 02:29:00,60.6,43.4,25.22,WSW,250,3.1,3.1,53,0.00,,---,0.00,VWS V14.01,2013-02-13 08:29:00,
2013-02-13 02:30:00,60.6,43.4,25.22,WSW,250,3.1,3.1,53,0.00,,---,0.00,VWS V14.01,2013-02-13 08:30:00,
2013-02-13 02:31:00,60.1,43.9,25.22,WNW,294,0.0,2.7,55,0.00,,---,0.00,VWS V14.01,2013-02-13 08:31:00,
2013-02-13 02:32:00,59.7,44.0,25.22,WSW,252,4.0,4.0,56,0.00,,---,0.00,VWS V14.01,2013-02-13 08:32:00,
2013-02-13 02:33:00,60.1,43.9,25.22,WNW,294,0.0,2.7,55,0.00,,---,0.00,VWS V14.01,2013-02-13 08:33:00,
2013-02-13 02:34:00,59.7,44.0,25.22,West,265,2.7,3.1,56,0.00,,---,0.00,VWS V14.01,2013-02-13 08:34:00,
2013-02-13 02:35:00,59.7,44.0,25.22,WSW,237,3.1,4.0,56,0.00,,---,0.00,VWS V14.01,2013-02-13 08:35:00,
2013-02-13 02:36:00,59.4,44.1,25.22,WSW,242,0.0,3.1,57,0.00,,---,0.00,VWS V14.01,2013-02-13 08:36:00,
2013-02-13 02:37:00,59.4,44.1,25.22,WSW,242,3.1,3.1,57,0.00,,---,0.00,VWS V14.01,2013-02-13 08:37:00,
2013-02-13 02:38:00,59.0,44.3,25.22,WSW,254,0.0,0.0,58,0.00,,---,0.00,VWS V14.01,2013-02-13 08:38:00,
2013-02-13 02:39:00,59.4,44.1,25.22,WSW,254,0.0,0.0,57,0.00,,---,0.00,VWS V14.01,2013-02-13 08:39:00,
2013-02-13 02:40:00,59.0,44.7,25.22,WNW,294,4.9,4.9,59,0.00,,---,0.00,VWS V14.01,2013-02-13 08:40:00,
2013-02-13 02:41:00,58.8,45.0,25.22,West,271,2.2,4.9,60,0.00,,---,0.00,VWS V14.01,2013-02-13 08:41:00,
2013-02-13 02:42:00,59.0,44.7,25.22,WNW,294,4.9,4.9,59,0.00,,---,0.00,VWS V14.01,2013-02-13 08:42:00,
2013-02-13 02:43:00,58.8,45.0,25.22,West,271,2.2,4.9,60,0.00,,---,0.00,VWS V14.01,2013-02-13 08:43:00,
2013-02-13 02:44:00,58.8,45.0,25.22,West,271,0.0,2.2,60,0.00,,---,0.00,VWS V14.01,2013-02-13 08:44:00,
2013-02-13 02:45:00,58.8,45.0,25.22,West,271,0.0,0.0,60,0.00,,---,0.00,VWS V14.01,2013-02-13 08:45:00,
2013-02-13 02:46:00,58.8,45.4,25.22,ESE,111,6.3,6.3,61,0.00,,---,0.00,VWS V14.01,2013-02-13 08:46:00,
2013-02-13 02:47:00,58.8,46.3,25.22,ESE,111,6.3,6.3,63,0.00,,---,0.00,VWS V14.01,2013-02-13 08:47:00,
2013-02-13 02:48:00,58.8,45.4,25.22,ESE,111,6.3,6.3,61,0.00,,---,0.00,VWS V14.01,2013-02-13 08:48:00,
2013-02-13 02:49:00,58.8,46.3,25.22,ESE,111,6.3,6.3,63,0.00,,---,0.00,VWS V14.01,2013-02-13 08:49:00,
2013-02-13 02:50:00,58.8,46.3,25.22,SE,142,0.0,6.3,63,0.00,,---,0.00,VWS V14.01,2013-02-13 08:50:00,
2013-02-13 02:51:00,58.8,47.1,25.22,SE,127,4.0,6.3,65,0.00,,---,0.00,VWS V14.01,2013-02-13 08:51:00,
2013-02-13 02:52:00,58.8,47.1,25.22,East,98,6.3,6.3,65,0.00,,---,0.00,VWS V14.01,2013-02-13 08:52:00,
2013-02-13 02:53:00,59.0,47.7,25.22,ENE,71,3.6,5.4,66,0.00,,---,0.00,VWS V14.01,2013-02-13 08:53:00,
2013-02-13 02:54:00,59.0,47.7,25.22,East,90,2.7,3.6,66,0.00,,---,0.00,VWS V14.01,2013-02-13 08:54:00,
2013-02-13 02:55:00,59.0,47.7,25.22,ENE,71,3.6,5.4,66,0.00,,---,0.00,VWS V14.01,2013-02-13 08:55:00,
2013-02-13 02:56:00,59.0,48.1,25.22,ENE,74,4.0,5.4,67,0.00,,---,0.00,VWS V14.01,2013-02-13 08:56:00,
2013-02-13 02:57:00,59.0,47.7,25.22,ENE,73,5.4,5.4,66,0.00,,---,0.00,VWS V14.01,2013-02-13 08:57:00,
2013-02-13 02:58:00,59.0,48.1,25.22,ENE,74,4.0,5.4,67,0.00,,---,0.00,VWS V14.01,2013-02-13 08:58:00,
2013-02-13 02:59:00,59.2,48.2,25.22,East,93,5.8,5.8,67,0.00,,---,0.00,VWS V14.01,2013-02-13 08:59:00,
2013-02-13 03:00:00,59.0,48.1,25.22,East,93,5.8,5.8,67,0.00,,---,0.00,VWS V14.01,2013-02-13 09:00:00,
2013-02-13 03:01:00,59.2,47.8,25.22,SE,126,2.7,2.7,66,0.00,,---,0.00,VWS V14.01,2013-02-13 09:01:00,
2013-02-13 03:02:00,59.2,48.2,25.22,SE,126,2.7,5.8,67,0.00,,---,0.00,VWS V14.01,2013-02-13 09:02:00,
2013-02-13 03:03:00,59.2,47.8,25.22,SE,126,2.7,2.7,66,0.00,,---,0.00,VWS V14.01,2013-02-13 09:03:00,
2013-02-13 03:04:00,59.2,48.6,25.22,ESE,118,7.6,7.6,68,0.00,,---,0.00,VWS V14.01,2013-02-13 09:04:00,
2013-02-13 03:05:00,59.2,48.2,25.22,ESE,118,7.6,7.6,67,0.00,,---,0.00,VWS V14.01,2013-02-13 09:05:00,
2013-02-13 03:06:00,59.2,48.6,25.22,ENE,71,8.1,8.1,68,0.00,,---,0.00,VWS V14.01,2013-02-13 09:06:00,
2013-02-13 03:07:00,59.2,48.6,25.22,East,97,5.4,8.1,68,0.00,,---,0.00,VWS V14.01,2013-02-13 09:07:00,
2013-02-13 03:08:00,59.2,48.6,25.22,SE,134,4.0,5.4,68,0.00,,---,0.00,VWS V14.01,2013-02-13 09:08:00,
2013-02-13 03:09:00,59.2,48.6,25.22,East,97,5.4,8.1,68,0.00,,---,0.00,VWS V14.01,2013-02-13 09:09:00,
2013-02-13 03:10:00,59.2,48.6,25.22,ENE,59,2.7,3.1,68,0.00,,---,0.00,VWS V14.01,2013-02-13 09:10:00,
2013-02-13 03:11:00,59.2,48.6,25.22,East,97,3.1,4.0,68,0.00,,---,0.00,VWS V14.01,2013-02-13 09:11:00,
2013-02-13 03:12:00,59.2,48.6,25.22,ESE,112,0.0,2.7,68,0.00,,---,0.00,VWS V14.01,2013-02-13 09:12:00,
2013-02-13 03:13:00,59.2,48.6,25.22,ESE,112,2.7,3.1,68,0.00,,---,0.00,VWS V14.01,2013-02-13 09:13:00,
2013-02-13 03:14:00,59.2,48.6,25.22,ESE,112,0.0,2.7,68,0.00,,---,0.00,VWS V14.01,2013-02-13 09:14:00,
2013-02-13 03:15:00,59.2,48.2,25.22,East,97,3.6,7.6,67,0.00,,---,0.00,VWS V14.01,2013-02-13 09:15:00,
2013-02-13 03:16:00,59.2,48.2,25.22,East,97,3.6,3.6,67,0.00,,---,0.00,VWS V14.01,2013-02-13 09:16:00,
2013-02-13 03:17:00,59.2,48.2,25.22,East,97,3.6,7.6,67,0.00,,---,0.00,VWS V14.01,2013-02-13 09:17:00,
2013-02-13 03:18:00,59.2,48.2,25.22,East,97,3.6,3.6,67,0.00,,---,0.00,VWS V14.01,2013-02-13 09:18:00,
2013-02-13 03:19:00,59.2,48.2,25.22,ENE,73,3.1,3.6,67,0.00,,---,0.00,VWS V14.01,2013-02-13 09:19:00,